Simultaneous Nadir Overpasses (SNOs) Predictions

Prediction of SNOs between AQUA and METOP-C Satellite Orbit:

Table of predicted SNOs for the next 14.0 days since TLE Epoch: 11/9/2019
Index Date (AQUA) Time (AQUA) Lat,Lon (AQUA) SZA (AQUA ) Date (METOP-C) Time (METOP-C) Lat,Lon (METOP-C) SZA (METOP-C ) Distance(km) Time Diff (sec)
1 11/11/2019 08:30:25 73.76, 46.72 91.05 11/11/2019 08:29:24 73.74, 46.72 91.04 2.14 61
2 11/11/2019 09:19:52 -73.81,-145.74 88.90 11/11/2019 09:20:04 -73.82,-145.77 88.88 1.91 12
3 11/11/2019 10:09:27 74.23, 20.96 91.55 11/11/2019 10:10:36 74.22, 22.53 91.53 47.65 69
4 11/14/2019 04:04:39 73.75, 113.19 91.80 11/14/2019 04:03:44 73.76, 113.17 91.82 1.96 55
5 11/14/2019 04:54:07 -73.84, -79.38 88.10 11/14/2019 04:54:24 -73.84, -79.32 88.10 1.93 17
6 11/14/2019 05:43:46 74.47, 86.82 92.56 11/14/2019 05:44:52 74.43, 89.49 92.50 79.77 66
7 11/16/2019 23:38:55 73.79, 179.54 92.56 11/16/2019 23:38:05 73.78, 179.63 92.55 2.83 50
8 11/17/2019 00:28:22 -73.83, -12.92 87.39 11/17/2019 00:28:45 -73.86, -12.87 87.37 2.90 23
9 11/19/2019 19:13:10 73.79,-114.01 93.23 11/19/2019 19:12:27 73.75,-114.04 93.20 3.57 43
10 11/19/2019 20:02:37 -73.83, 53.52 86.72 11/19/2019 20:03:07 -73.82, 53.46 86.73 2.17 30
11 11/22/2019 14:47:24 73.79, -47.58 93.86 11/22/2019 14:46:47 73.77, -47.58 93.85 1.53 37
12 11/22/2019 15:36:51 -73.84, 119.95 86.09 11/22/2019 15:37:27 -73.84, 119.91 86.08 1.59 36




NCC Satellite Simultaneous Nadir Overpasses (SNOs) Prediction Service
